Overview Statistics Trail Chart Weather Telemetry Raw packets
 

This is the latest recevied weather packets stored in our database for station/object KF0WJA. If no packets are shown the sender has not sent any weather packets the latest 10 day(s).

<< 106 107 108 109 110 111 112 >>
Time Temp. Humidity Pressure Rain* Wind** Luminosity Snow
1787857644 32.78° C 46% 1021.8 hPa 0 mm - 651 W/m² -
1787857340 32.78° C 46% 1021.5 hPa 0 mm - 590 W/m² -
1787857037 32.78° C 46% 1021.7 hPa 0 mm - 632 W/m² -
1787856732 32.22° C 46% 1021.9 hPa 0 mm - 648 W/m² -
1787856426 32.78° C 47% 1021.7 hPa 0 mm - 675 W/m² -
1787856122 31.67° C 49% 1021.8 hPa 0 mm - 622 W/m² -
1787855817 32.22° C 48% 1022 hPa 0 mm - 598 W/m² -
1787855512 32.22° C 49% 1021.8 hPa 0 mm - 645 W/m² -
1787855208 31.67° C 50% 1021.9 hPa 0 mm - 632 W/m² -
1787854903 31.67° C 51% 1021.9 hPa 0 mm - 641 W/m² -
1787854603 31.67° C 49% 1022.1 hPa 0 mm - 650 W/m² -
1787854297 31.67° C 49% 1022 hPa 0 mm - 562 W/m² -
1787853993 31.11° C 50% 1022 hPa 0 mm - 570 W/m² -
1787853692 31.67° C 50% 1022.2 hPa 0 mm - 577 W/m² -
1787853386 31.67° C 49% 1022.2 hPa 0 mm - 668 W/m² -
1787853086 31.11° C 51% 1022.5 hPa 0 mm - 617 W/m² -
1787852781 31.11° C 51% 1022.3 hPa 0 mm - 640 W/m² -
1787852479 31.11° C 50% 1022.4 hPa 0 mm - 626 W/m² -
1787852179 31.11° C 50% 1022.4 hPa 0 mm - 653 W/m² -
1787851874 30.56° C 51% 1022.5 hPa 0 mm - 665 W/m² -
1787851573 30.56° C 52% 1022.5 hPa 0 mm - 613 W/m² -
1787851268 30.56° C 53% 1022.7 hPa 0 mm - 617 W/m² -
1787850963 31.11° C 50% 1022.8 hPa 0 mm - 615 W/m² -
1787850660 30.56° C 53% 1022.8 hPa 0 mm - 678 W/m² -
1787850355 30.56° C 52% 1022.9 hPa 0 mm - 565 W/m² -

* Rain latest hour (hover to see other rain measurements)
** Current wind speed in m/s (hover to see current wind gust speed)